Regional Weather Roundup
Issued by NWS

Home | Current Version | Previous Version | Text Only | Print | Product List | Glossary Off
Versions: 1 2 3 4 5 6 7 8 9 10 11 12 13 14 15 16 17 18 19 20 21 22 23 24 25 26 27 28 29 30 31 32 33 34 35 36 37 38 39 40 41 42 43 44 45 46 47 48 49 50

000
ASUS45 KSLC 240910
RWRUT

UTAH REGIONAL WEATHER ROUNDUP
NATIONAL WEATHER SERVICE SALT LAKE CITY UT
300 AM MDT FRI APR 24 2015

UTZ001>011-023>025-241000-

NORTHERN UTAH

CITY           SKY/WX    TMP DP  RH WIND       PRES   REMARKS
BRIGHAM CITY   PTCLDY    46  39  77 S3        29.72F
HILL AFB       PTCLDY    50  37  62 SE8       29.72F
LOGAN          CLEAR     38  36  92 NW6       29.72F WCI  33
OGDEN          PTCLDY    50  40  68 CALM      29.71F
PROVO AIRPORT  CLEAR     46  30  53 SE6       29.75S
SALT LAKE CITY PTCLDY    51  38  60 SE7       29.71F
VERNAL         CLOUDY    46  32  58 CALM      29.78F
WENDOVER       CLOUDY    54  34  47 CALM      29.72F
HEBER CITY     CLEAR     34  30  86 N3        29.77F
WEST JORDAN    CLEAR     46  37  71 CALM      29.74F

$$

UTZ012>022-026-027-241000-

SOUTHERN/CENTRAL UTAH

CITY           SKY/WX    TMP DP  RH WIND       PRES   REMARKS
BLANDING       MOCLDY    43  29  58 NE9       29.90F
BRYCE CANYON   PTCLDY    24  16  71 CALM      29.89F
CEDAR CITY     CLEAR     41  27  57 S7        29.83F
DELTA          PTCLDY    47  26  43 S10       29.76F
HANKSVILLE     PTCLDY    43  21  42 CALM      29.76F
MILFORD        PTCLDY    44  27  51 SW15      29.79F
MOAB/CYNLANDS  MOCLDY    52  27  38 CALM      29.74S
PRICE          PTCLDY    42  21  43 CALM      29.78F
ST GEORGE      SUNNY     54  28  37 E7        29.80F
KANAB          CLEAR     36  27  69 N3        29.89F

$$

REGIONAL REPORTS     COLORADO/ARIZONA

CITY           SKY/WX    TMP DP  RH WIND       PRES   REMARKS
CRAIG, CO      PTCLDY    31  28  89 CALM      29.83F
GRAND JUNCTION CLOUDY    49  32  52 SE8       29.77F
RIFLE          PTCLDY    41  30  65 S3        29.82F
MONTROSE       CLOUDY    42  29  59 S7        29.85F
CORTEZ         MOCLDY    48  29  47 S3        29.86F
PAGE, AZ       MOCLDY    58  29  33 NW7       29.80F
GRAND CANYON   PTCLDY    28  18  66 CALM      29.92F
KINGMAN        CLEAR     43  37  79 CALM      29.82F
FLAGSTAFF      PTCLDY    32  25  75 CALM      29.92F

$$

REGIONAL REPORTS    NEVADA/IDAHO/WYOMING

CITY           SKY/WX    TMP DP  RH WIND       PRES   REMARKS
LAS VEGAS, NV  PTCLDY    63  38  39 S14       29.70F
ELY            CLOUDY    44  30  57 SW8       29.81F
ELKO           CLOUDY    39  35  86 E6        29.74F WCI  35
POCATELLO, ID  CLEAR     44  31  60 CALM      29.69F
BURLEY         PTCLDY    47  36  65 S15       29.66F
EVANSTON, WY   PTCLDY    37  32  82 E6        29.80F WCI  32
ROCK SPRINGS   PTCLDY    37  32  82 SW7       29.81F WCI  32
KEMMERER       PTCLDY    34  32  93 N3        29.80F

$$


USA.gov is the U.S. government's official web portal to all federal, state and local government web resources and services.